Tracking 19831 objects as of 23-Aug-2019
HD Live streaming from Space Station
objects crossing your sky now

FLOCK 3K 8

Track FLOCK 3K 8 now!
10-day predictions
FLOCK 3K 8 is classified as:


NORAD ID: 43901
Int'l Code: 2018-111AB
Perigee: 483.2 km
Apogee: 515.9 km
Inclination: 97.3 °
Period: 94.5 minutes
Semi major axis: 6870 km
RCS: Unknown
Launch date: December 27, 2018
Source: United States (US)
Launch site: VOSTOCHNY COSMODROME (VOSTO)
aabbcc
Your satellite tracking list
Your tracking list is empty




NASA's NSSDC Master Catalog

Two Line Element Set (TLE):
1 43901U 18111AB  19235.39694370  .00000583  00000-0  26430-4 0  9995
2 43901  97.2835 138.7869 0023788 118.4864 241.8774 15.24459862 36452
Source of the keplerian elements: AFSPC